CW3319 Weather Reports


time (UTC)temp
F
wind
direction
speed
knots
gust
knots
rain 1hr
in
rain 24hr
in
rain mn
in
humidity
%
barometer
mb
20260503010902 62 234 1.7 2.6 0.00 0.00 0.00 43 1009.2
20260503005902 62 263 1.7 1.7 0.00 0.00 0.00 46 1009.2
20260503004902 63 258 0.9 2.6 0.00 0.00 0.00 45 1009.4
20260503003902 63 262 1.7 3.5 0.00 0.00 0.00 42 1009.4
20260503002932 63 262 4.3 7.0 0.00 0.00 0.00 42 1009.5
20260503001902 63 277 6.1 7.8 0.00 0.00 0.00 44 1009.6
20260503000932 63 260 2.6 3.5 0.00 0.00 0.00 40 1009.4
20260502235902 63 238 2.6 4.3 0.00 0.00 0.00 41 1009.3
20260502234902 64 176 0.9 2.6 0.00 0.00 0.00 40 1009.5
20260502233902 64 237 0.0 0.0 0.00 0.00 0.00 40 1009.7
20260502232902 64 227 0.0 0.9 0.00 0.00 0.00 40 1009.7
20260502231902 64 213 0.9 1.7 0.00 0.00 0.00 38 1009.8
20260502230902 64 223 1.7 2.6 0.00 0.00 0.00 38 1009.9
20260502225902 64 259 0.9 1.7 0.00 0.00 0.00 40 1010.0
20260502224932 64 263 1.7 2.6 0.00 0.00 0.00 40 1010.2
20260502223902 64 271 1.7 1.7 0.00 0.00 0.00 39 1010.2
20260502222902 64 264 2.6 4.3 0.00 0.00 0.00 36 1010.2
20260502221902 64 255 0.9 1.7 0.00 0.00 0.00 38 1010.4
20260502220902 64 255 2.6 2.6 0.00 0.00 0.00 38 1010.5
20260502215902 64 268 1.7 2.6 0.00 0.00 0.00 37 1010.6
20260502214902 64 258 0.9 1.7 0.00 0.00 0.00 36 1010.7
20260502213902 64 236 2.6 3.5 0.00 0.00 0.00 37 1010.9
20260502212902 64 290 1.7 2.6 0.00 0.00 0.00 36 1011.0
20260502211902 65 263 1.7 2.6 0.00 0.00 0.00 36 1011.2
20260502210902 65 263 3.5 7.0 0.00 0.00 0.00 35 1011.5
20260502205902 65 261 2.6 3.5 0.00 0.00 0.00 37 1011.7
20260502204932 64 247 1.7 2.6 0.00 0.00 0.00 36 1011.8
20260502203902 64 236 1.7 3.5 0.00 0.00 0.00 36 1012.0
20260502202902 64 252 3.5 6.1 0.00 0.00 0.00 35 1012.3
20260502201902 64 252 1.7 2.6 0.00 0.00 0.00 34 1012.6
20260502200902 64 280 1.7 1.7 0.00 0.00 0.00 36 1012.7
20260502195902 64 274 3.5 5.2 0.00 0.00 0.00 36 1012.8
20260502195002 63 259 4.3 7.0 0.00 0.00 0.00 39 1013.1
20260502193902 63 246 2.6 3.5 0.00 0.00 0.00 37 1013.3
20260502192902 62 262 2.6 3.5 0.00 0.00 0.00 39 1013.5
20260502191933 62 260 2.6 3.5 0.00 0.00 0.00 35 1013.7
20260502190901 62 265 1.7 2.6 0.00 0.00 0.00 37 1013.8
20260502185902 62 284 4.3 7.0 0.00 0.00 0.00 38 1014.0
20260502184902 61 230 3.5 4.3 0.00 0.00 0.00 38 1014.2
20260502183902 61 257 2.6 2.6 0.00 0.00 0.00 36 1014.5
20260502182902 61 267 3.5 5.2 0.00 0.00 0.00 39 1014.6
20260502181902 60 238 1.7 3.5 0.00 0.00 0.00 38 1014.7
20260502180902 60 270 3.5 5.2 0.00 0.00 0.00 39 1014.9
20260502163932 57 283 1.7 2.6 0.00 0.00 0.00 44 1016.2
20260502162902 56 241 0.9 1.7 0.00 0.00 0.00 46 1016.4
20260502161902 56 303 1.7 2.6 0.00 0.00 0.00 41 1016.4
20260502160902 56 274 1.7 2.6 0.00 0.00 0.00 43 1016.5
20260502151902 53 273 2.6 3.5 0.00 0.00 0.00 49 1017.0
20260502150932 53 270 1.7 2.6 0.00 0.00 0.00 47 1017.1
20260502122933 42 271 1.7 1.7 0.00 0.00 0.00 70 1017.4
20260502121902 41 254 1.7 2.6 0.00 0.00 0.00 71 1017.4
20260502120902 41 262 0.9 1.7 0.00 0.00 0.00 71 1017.4
20260502115903 41 279 0.9 1.7 0.00 0.00 0.00 69 1017.4
20260502114901 41 277 0.0 0.0 0.00 0.00 0.00 69 1017.3
20260502113903 41 271 0.0 0.0 0.00 0.00 0.00 69 1017.3
20260502112902 41 269 0.0 0.0 0.00 0.00 0.00 69 1017.2
20260502111932 41 269 0.0 0.0 0.00 0.00 0.00 70 1017.2
20260502110903 41 269 0.0 0.0 0.00 0.00 0.00 69 1017.2
20260502105932 41 269 0.9 0.9 0.00 0.00 0.00 69 1017.1
20260502104932 41 265 0.9 1.7 0.00 0.00 0.00 68 1017.1
20260502103902 41 270 0.9 1.7 0.00 0.00 0.00 68 1017.1
20260502102902 42 271 0.9 1.7 0.00 0.00 0.00 68 1017.1
20260502101902 42 275 0.9 1.7 0.00 0.00 0.00 67 1017.2
20260502100902 42 273 0.9 1.7 0.00 0.00 0.00 67 1017.1
20260502090932 42 267 1.7 1.7 0.00 0.00 0.00 64 1017.1
20260502070902 42 241 0.0 0.0 0.00 0.00 0.00 67 1017.5
20260502065902 41 241 0.0 0.0 0.00 0.00 0.00 69 1017.5
20260502064902 40 241 0.0 0.0 0.00 0.00 0.00 67 1017.6
20260502063902 40 232 0.0 0.0 0.00 0.00 0.00 66 1017.6
20260502062902 41 266 0.0 0.0 0.00 0.00 0.00 68 1017.6
20260502061902 41 273 0.0 0.0 0.00 0.00 0.00 66 1017.6
20260502060932 41 273 0.0 0.0 0.00 0.00 0.00 67 1017.6
20260502055902 42 273 0.9 1.7 0.00 0.00 0.00 67 1017.6
20260502054902 41 273 0.0 1.7 0.00 0.00 0.00 65 1017.7
20260502053902 41 273 0.0 0.0 0.00 0.00 0.00 63 1017.7
20260502052932 41 273 0.0 0.0 0.00 0.00 0.00 64 1017.7
20260502051902 41 273 0.0 0.0 0.00 0.00 0.00 64 1017.7
20260502050902 41 5 0.9 0.9 0.00 0.00 0.00 61 1017.6
20260502045902 42 5 0.0 0.0 0.00 0.00 0.00 59 1017.6
20260502044903 42 5 0.0 0.0 0.00 0.00 0.00 59 1017.6
20260502043902 42 5 0.0 0.0 0.00 0.00 0.00 59 1017.5
20260502042901 42 5 0.0 0.0 0.00 0.00 0.00 57 1017.5
20260502041902 42 5 0.0 0.0 0.00 0.00 0.00 60 1017.6
20260502040902 43 11 0.0 0.0 0.00 0.00 0.00 54 1017.6
20260502035902 43 11 0.0 0.0 0.00 0.00 0.00 54 1017.6
20260502034902 43 20 0.0 0.0 0.00 0.00 0.00 53 1017.7
20260502033902 44 20 0.0 0.0 0.00 0.00 0.00 50 1017.6
20260502032902 44 20 0.0 0.0 0.00 0.00 0.00 50 1017.7
20260502031932 44 20 0.0 0.0 0.00 0.00 0.00 48 1017.7
20260502030902 44 20 0.0 0.0 0.00 0.00 0.00 48 1017.6
20260502025902 45 20 0.0 0.0 0.00 0.00 0.00 48 1017.6
20260502024933 45 20 0.0 0.0 0.00 0.00 0.00 47 1017.6
20260502023902 45 20 0.0 0.0 0.00 0.00 0.00 48 1017.6
20260502022901 45 20 0.0 0.0 0.00 0.00 0.00 51 1017.6
20260502021932 46 20 0.0 0.0 0.00 0.00 0.00 49 1017.5
20260502020902 46 20 0.0 0.0 0.00 0.00 0.00 49 1017.5
20260502015903 46 20 0.0 0.0 0.00 0.00 0.00 47 1017.4
20260502014902 47 20 0.0 0.0 0.00 0.00 0.00 45 1017.3
20260502013902 48 20 0.0 0.0 0.00 0.00 0.00 43 1017.2
20260502012902 49 20 0.0 0.0 0.00 0.00 0.00 43 1017.1
20260502011902 49 20 0.0 0.0 0.00 0.00 0.00 42 1017.1